Regional Weather Roundup
Issued by NWS Grand Forks, ND

Home | Current Version | Previous Version | Graphics & Text | Print | Product List | Glossary On
Versions: 1 2 3 4 5 6 7 8 9 10 11 12 13 14 15 16 17 18 19 20 21 22 23 24 25 26 27 28 29 30 31 32 33 34 35 36 37 38 39 40 41 42 43 44 45 46 47 48 49 50
000
ASUS43 KFGF 281131
RWRFGF
PRAIRIE TO PINES  WEATHER ROUNDUP
NATIONAL WEATHER SERVICE EASTERN NORTH DAKOTA/GRAND FORKS ND
600 AM CDT TUE JUL 28 2015

 **SATELLITE DATA USED TO AUGMENT SKY COVER AT AUTOMATED STATIONS**
 *****  WEATHER ACROSS EASTERN NORTH DAKOTA  *****

CITY           SKY/WX    TMP DP  RH WIND       PRES   REMARKS
GRAND FORKS    CLOUDY    73  70  88 SE25G37   29.57S
GRAND FRKS AFB CLOUDY    75  71  87 S21G36    29.57S
GRAND FRKS NWS   N/A     72 N/A N/A S28         N/A
DEVILS LAKE    CLOUDY    70  61  73 S9        29.56R
FARGO          LGT RAIN  71  69  93 E16       29.55F
WAHPETON ARPT  CLOUDY    68  64  88 SE8       29.65R
$$

 ***** WEATHER ACROSS CENTRAL AND WESTERN NORTH DAKOTA  *****

CITY           SKY/WX    TMP DP  RH WIND       PRES   REMARKS
BISMARCK       PTCLDY    62  56  80 W15       29.69R
MINOT          CLOUDY    65  56  72 SW15G25   29.58R
JAMESTOWN      CLOUDY    68  63  84 S9        29.63R
MINOT AFB      CLOUDY    65  61  88 SW14G22   29.56R
GARRISON         N/A     63  56  78 W21G30    29.63R
WILLISTON      MOCLDY    60  54  80 SW24G35   29.57F
DICKINSON      PTCLDY    56  50  80 W25G37    29.71R
HETTINGER      CLEAR     55  48  77 W22G32    29.82R
$$

 *****  OTHER AIRPORT OBSERVATIONS IN OUR AREA  *****

CITY           SKY/WX    TMP DP  RH WIND       PRES   REMARKS
WALHALLA       FAIR      73  73 100 MISG      29.56R
GRAFTON AIRPOR CLOUDY    75  73  94 S18G33    29.58R
VALLEY CITY AR FAIR      66  66 100 S7        29.65S
CANDO          FAIR      68  66  94 S7        29.55R
CAVALIER APRT  CLOUDY    73  72  94 S14G23    29.57R
GWINNER        CLOUDY    68  68 100 W6        29.71R
SHEYENNE NWR     N/A     67  66  97 SE12      29.95S
ROLLA          FAIR      66  66 100 S7        29.55S
 ***** THE ABOVE OBSERVATIONS ARE NON NWS ARE NOT QUALITY
       CONTROLLED AND MAY MIS-REPORT RAIN FOR SNOW...
$$

  *****  WEATHER ACROSS NORTHERN MINNESOTA  *****

CITY           SKY/WX    TMP DP  RH WIND       PRES   REMARKS
FLAG ISLAND    CLOUDY    75  70  83 SE21      29.68F
WARROAD        CLOUDY    72  68  88 SE12      29.67S
ROSEAU         CLOUDY    73  68  83 SE12      29.65F
HALLOCK        CLOUDY    75  72  88 S16G24    29.57S
THF RVR FALLS  CLOUDY    73  70  88 S14       29.65S
BAUDETTE       CLOUDY    72  68  87 SE12      29.69F
WASKISH        CLOUDY    73  70  88 SE8G17    29.70F
CROOKSTON      RAIN      70  68  94 S21G33    29.62F
STEPHEN NDAWN    N/A     75  72  88 S17         N/A
GREENBUSH NDAW   N/A     73  70  88 SE12        N/A
$$
  *****  WEATHER ACROSS CENTRAL AND WEST MINNESOTA  *****

CITY           SKY/WX    TMP DP  RH WIND       PRES   REMARKS
FOSSTON        LGT RAIN  70  68  94 S8        29.69F
BEMIDJI        RAIN      72  68  89 S13G18    29.72F
PARK RAPIDS    RAIN      71  68  90 S10       29.71F FOG
ELBOW LAKE     DRIZZLE   67  67  97 E10       29.65F
WADENA         RAIN      68  66  94 E7        29.66F
DETROIT LAKES  RAIN      70  68  94 S8        29.69F
MOORHEAD       CLOUDY    70  68  94 SE16      29.61F
FERGUS FALLS   DRIZZLE   70  70 100 SE10      29.63F
MORRIS MN      CLOUDY    70  70 100 E5        29.65R
STAPLES        HVY RAIN  70  68  94 CALM      29.73F
$$
  *****  WEATHER ELSEWHERE ACROSS MINNESOTA  *****

CITY           SKY/WX    TMP DP  RH WIND       PRES   REMARKS
DULUTH         MOCLDY    69  65  86 SE10      29.85F
INTRNTL FALLS  MOCLDY    69  66  90 SE9       29.77S
ELY            CLEAR     68  63  83 SE9       29.85F
CLOQUET        MOCLDY    70  66  88 SE7       29.83F
WHEATON        CLOUDY    64  64 100 SE9       29.68R
BRAINERD       HVY RAIN  72  70  93 SE14G21   29.77F FOG
HIBBING        CLOUDY    69  67  93 SE9       29.82F
ALEXANDRIA     LGT RAIN  67  67 100 SE12      29.67F
SAINT CLOUD    RAIN      71  70  96 E8        29.78F FOG
MINNEAPOLIS    HVY RAIN  73  71  93 S12G22    29.81F FOG
$$

  *****  WEATHER ACROSS SOUTH DAKOTA  *****

CITY           SKY/WX    TMP DP  RH WIND       PRES   REMARKS
SIOUX FALLS    CLOUDY    70  67  90 S10       29.79R
BROOKINGS      CLOUDY    70  63  78 S8        29.73R
WATERTOWN      CLOUDY    68  65  90 S5        29.69R
HURON          CLOUDY    68  67  96 SW9       29.73R
SISSETON         N/A     67  66  97 SW8       29.65R
ABERDEEN       CLOUDY    68  65  90 SW14      29.70R
MITCHELL       CLOUDY    69  68  96 S8        29.74R
PIERRE         CLOUDY    63  57  81 NW20G30   29.78R
MOBRIDGE       MOCLDY    63  59  87 W13       29.73R
RAPID CITY     CLEAR     52  45  77 NW6       29.94R
$$

  *****  SOME WEATHER IN NEARBY STATES *****

CITY           SKY/WX    TMP DP  RH WIND       PRES   REMARKS
GLASGOW MT     LGT RAIN  57  54  89 W24G30    29.61F
GREAT FALLS MT CLOUDY    51  45  79 SW15      30.04R
CHEYENNE WY    CLEAR     57  29  34 NW18G29   30.14R
SCOTTSBLUFF NE CLEAR     55  48  77 NW8       30.03R
OMAHA NE       MOCLDY    79  73  82 S15       29.77R
DES MOINES IA  PTCLDY    74  69  85 S10       29.84F
DAVENPORT IA   PTCLDY    70  68  93 SE5       29.96R
CHICAGO IL     PTCLDY    71  66  84 CALM      29.99R
EAU CLAIRE WI  PTCLDY    72  65  78 SE12      29.89S
LA CROSSE WI   CLEAR     73  65  75 SE8       29.91R
$$

  *****  SOME NATIONAL WEATHER *****

CITY           SKY/WX    TMP DP  RH WIND       PRES   REMARKS
LA GUARDIA NY  MOSUNNY   77  69  76 CALM      30.00R
RALEIGH NC     PTCLDY    74  71  91 CALM      30.02R
ATLANTA GA     PTCLDY    78  70  76 NW3       30.00R
NEW ORLEANS LA PTCLDY    80  74  81 CALM      29.98R
OKLAHOMA CITY  CLEAR     75  68  78 S8        29.91R
ALBUQUERQUE NM PTCLDY    77  51  40 S12       30.09S
SALT LAKE CITY CLEAR     55  38  52 S3        30.20R
LOS ANGELES CA MOCLDY    67  63  87 CALM      29.88S
BOISE ID       CLEAR     53  36  52 SE3       30.21R
SEATTLE WA     MOCLDY    60  52  74 NE10      30.27S
$$

*** WEATHER ACROSS MANITOBA...SASKATCHEWAN AND ONTARIO ***
                ***ONTARIO***

CITY           SKY/WX    TMP DP  RH WIND       PRES   REMARKS
GERALDTON      PTCLDY    61  55  82 CALM      29.95F
THUNDER BAY    MOCLDY    61  59  94 NE5       29.93R
SIOUX LOOKOUT  MOCLDY    68  63  83 SE5       29.84S
TORONTO        PTCLDY    70  59  68 NW6       30.03R
BIG TROUT LK   PTCLDY    59  57  94 E3        29.84F
PICKLE LAKE    PTCLDY    66  61  82 SE5       29.86
DRYDEN         CLEAR     70  63  78 SE9       29.82S
KENORA         MOCLDY    72  68  88 SE9G17    29.74F
$$
                *** MANITOBA***

CITY           SKY/WX    TMP DP  RH WIND       PRES   REMARKS
BRANDON        CLOUDY    72  72 100 SE7       29.47F FOG
DAUPHIN        CLOUDY    64  63  94 N3        29.49F
ISLAND LAKE    MOCLDY    66  61  82 E3        29.78F
PILOT MOUND      N/A     70  68  94 SE8         N/A
THE PAS        LGT RAIN  63  61  94 N5        29.75F
THOMPSON       MOCLDY    55  52  88 NE3       29.79F
WINNIPEG       MOCLDY    73  72  94 SE14G25   29.58S
LYNN LAKE      CLOUDY    55  52  88 S2        29.79R
CHURCHILL      FOG       48  48 100 N10       29.78R VSB 1/8
GILLAM         MOCLDY    59  55  88 SW2       29.80F
$$
                ***SASKATCHEWAN***

CITY           SKY/WX    TMP DP  RH WIND       PRES   REMARKS
ESTEVAN        CLOUDY    61  59  94 SW17G28   29.46F
KINDERSLEY     CLOUDY    57  55  94 NW13G18   29.80R
LLOYDMINSTER   MOCLDY    54  46  76 NW13      29.85S
PRINCE ALBERT  LGT RAIN  57  55  94 NE13G20   29.68F
REGINA         CLOUDY    63  61  94 NW3       29.35
YORKTON        PTCLDY    63  61  94 E8        29.41F
N. BATTLEFORD  CLOUDY    57  55  94 NW9       29.77S
LA RONGE       MOCLDY    57  54  88 CALM      29.77F
SASKATOON      LGT RAIN  57  55  94 N13G20    29.68R
SWIFT CURRENT  RAIN      54 N/A N/A NW28G39   29.62S
$$
NOTE: THESE ARE AUTOMATED STATIONS WITH LIMITED QUALITY CONTROL
      "FAIR" INDICATES FEW OR NO CLOUDS BELOW 12,000 FEET WITH NO
      SIGNIFICANT WEATHER AND/OR OBSTRUCTIONS TO VISIBILITY.
      SKY/WX - SKY CONDITION AND SIGNIFICANT WEATHER.
      TMP - AIR TEMPERATURE.    DP   - DEWPOINT TEMPERATURE.
      RH  - RELATIVE HUMIDITY.  PRES - PRESSURE.
      HX  - HEAT INDEX.         WCI  - WIND CHILL INDEX.
$


USA.gov is the U.S. government's official web portal to all federal, state and local government web resources and services.